TimeCEST,TemperatureF,Dew PointF,Humidity,Sea Level PressureIn,VisibilityMPH,Wind Direction,Wind SpeedMPH,Gust SpeedMPH,PrecipitationIn,Events,Conditions,WindDirDegrees,DateUTC
12:20 AM,59.0,48.2,67,30.04,6.2,South,2.3,-,N/A,,Partly Cloudy,170,2013-05-26 22:20:00
12:50 AM,59.0,50.0,72,30.04,6.2,SSW,4.6,-,N/A,,Partly Cloudy,210,2013-05-26 22:50:00
1:20 AM,57.2,50.0,77,30.04,6.2,WSW,3.5,-,N/A,,Partly Cloudy,240,2013-05-26 23:20:00
1:50 AM,59.0,50.0,72,30.04,6.2,South,3.5,-,N/A,,Partly Cloudy,190,2013-05-26 23:50:00
2:50 AM,55.4,48.2,77,30.01,6.2,West,3.5,-,N/A,,Partly Cloudy,260,2013-05-27 00:50:00
3:20 AM,57.2,48.2,72,30.01,-9999.0,WSW,3.5,-,N/A,,Clear,250,2013-05-27 01:20:00
3:50 AM,53.6,46.4,77,30.01,-9999.0,Variable,2.3,-,N/A,,Clear,0,2013-05-27 01:50:00
4:20 AM,53.6,48.2,82,30.01,-9999.0,Calm,Calm,-,N/A,,Clear,0,2013-05-27 02:20:00
4:50 AM,53.6,48.2,82,30.01,-9999.0,Variable,1.2,-,N/A,,Clear,0,2013-05-27 02:50:00
5:20 AM,51.8,46.4,82,30.01,-9999.0,Variable,1.2,-,N/A,,Clear,0,2013-05-27 03:20:00
5:50 AM,53.6,48.2,82,30.01,6.2,Calm,Calm,-,N/A,,Partly Cloudy,0,2013-05-27 03:50:00
6:20 AM,53.6,48.2,82,30.01,6.2,Calm,Calm,-,N/A,,Partly Cloudy,0,2013-05-27 04:20:00
6:50 AM,55.4,50.0,82,30.01,6.2,Variable,1.2,-,N/A,,Scattered Clouds,0,2013-05-27 04:50:00
7:20 AM,59.0,50.0,72,30.01,6.2,Variable,2.3,-,N/A,,Partly Cloudy,0,2013-05-27 05:20:00
7:50 AM,60.8,50.0,68,30.01,6.2,South,3.5,-,N/A,,Partly Cloudy,170,2013-05-27 05:50:00
8:20 AM,62.6,50.0,63,30.01,6.2,South,5.8,-,N/A,,Partly Cloudy,180,2013-05-27 06:20:00
8:50 AM,62.6,50.0,63,30.04,6.2,South,5.8,-,N/A,,Partly Cloudy,190,2013-05-27 06:50:00
9:20 AM,66.2,50.0,56,30.04,6.2,Variable,3.5,-,N/A,,Partly Cloudy,0,2013-05-27 07:20:00
9:50 AM,66.2,48.2,52,30.04,6.2,Variable,5.8,-,N/A,,Partly Cloudy,0,2013-05-27 07:50:00
10:20 AM,64.4,48.2,56,30.04,6.2,SSW,9.2,-,N/A,,Partly Cloudy,200,2013-05-27 08:20:00
10:50 AM,66.2,50.0,56,30.04,6.2,SSW,10.4,-,N/A,,Scattered Clouds,200,2013-05-27 08:50:00
11:20 AM,64.4,48.2,56,30.04,6.2,SSW,11.5,-,N/A,,Scattered Clouds,210,2013-05-27 09:20:00
11:50 AM,66.2,48.2,52,30.04,6.2,SSW,10.4,-,N/A,,Scattered Clouds,200,2013-05-27 09:50:00
12:20 PM,66.2,44.6,46,30.04,6.2,SSW,12.7,-,N/A,,Scattered Clouds,200,2013-05-27 10:20:00
12:50 PM,66.2,46.4,49,30.04,6.2,South,11.5,-,N/A,,Scattered Clouds,190,2013-05-27 10:50:00
1:20 PM,68.0,46.4,46,30.04,6.2,SSW,10.4,-,N/A,,Scattered Clouds,200,2013-05-27 11:20:00
1:50 PM,66.2,46.4,49,30.04,6.2,SSW,11.5,-,N/A,,Scattered Clouds,200,2013-05-27 11:50:00
2:20 PM,68.0,46.4,46,30.01,6.2,SSW,11.5,-,N/A,,Scattered Clouds,210,2013-05-27 12:20:00
2:50 PM,68.0,48.2,49,30.01,6.2,South,11.5,-,N/A,,Partly Cloudy,190,2013-05-27 12:50:00
3:20 PM,66.2,48.2,52,30.01,6.2,SSW,11.5,-,N/A,,Partly Cloudy,200,2013-05-27 13:20:00
3:50 PM,68.0,46.4,46,30.01,6.2,South,11.5,-,N/A,,Scattered Clouds,190,2013-05-27 13:50:00
4:20 PM,66.2,46.4,49,30.01,6.2,South,10.4,-,N/A,,Scattered Clouds,180,2013-05-27 14:20:00
4:50 PM,64.4,48.2,56,30.01,6.2,SSW,10.4,-,N/A,,Scattered Clouds,200,2013-05-27 14:50:00
5:50 PM,64.4,44.6,49,29.98,6.2,South,8.1,-,N/A,,Scattered Clouds,190,2013-05-27 15:50:00
6:20 PM,64.4,46.4,52,29.98,6.2,SSW,6.9,-,N/A,,Scattered Clouds,200,2013-05-27 16:20:00
6:50 PM,64.4,48.2,56,29.98,6.2,South,5.8,-,N/A,,Scattered Clouds,190,2013-05-27 16:50:00
7:20 PM,64.4,48.2,56,29.98,6.2,South,6.9,-,N/A,,Scattered Clouds,190,2013-05-27 17:20:00
7:50 PM,64.4,48.2,56,29.98,6.2,South,4.6,-,N/A,,Partly Cloudy,180,2013-05-27 17:50:00
8:20 PM,62.6,48.2,59,29.98,-9999.0,Variable,2.3,-,N/A,,Clear,0,2013-05-27 18:20:00
8:50 PM,60.8,48.2,63,29.98,-9999.0,SSW,1.2,-,N/A,,Clear,210,2013-05-27 18:50:00
9:20 PM,60.8,48.2,63,29.95,-9999.0,Calm,Calm,-,N/A,,Clear,0,2013-05-27 19:20:00
9:50 PM,60.8,48.2,63,29.95,-9999.0,Variable,2.3,-,N/A,,Clear,0,2013-05-27 19:50:00
10:20 PM,60.8,48.2,63,29.95,-9999.0,NNE,4.6,-,N/A,,Clear,30,2013-05-27 20:20:00
10:50 PM,59.0,48.2,67,29.95,-9999.0,NE,4.6,-,N/A,,Clear,50,2013-05-27 20:50:00
11:20 PM,59.0,50.0,72,29.92,-9999.0,ENE,3.5,-,N/A,,Clear,70,2013-05-27 21:20:00
11:50 PM,59.0,50.0,72,29.92,-9999.0,Variable,2.3,-,N/A,,Clear,0,2013-05-27 21:50:00